TimeCDT,TemperatureF,Dew PointF,Humidity,Sea Level PressureIn,VisibilityMPH,Wind Direction,Wind SpeedMPH,Gust SpeedMPH,PrecipitationIn,Events,Conditions,WindDirDegrees,DateUTC
12:56 AM,66.9,56.8,70,30.06,10.0,South,11.5,-,N/A,,Clear,180,2013-04-16 05:56:00
1:56 AM,66.9,56.8,70,30.05,10.0,South,16.1,21.9,N/A,,Clear,190,2013-04-16 06:56:00
2:56 AM,66.9,57.9,73,30.05,10.0,South,13.8,-,N/A,,Clear,190,2013-04-16 07:56:00
3:56 AM,65.8,57.9,76,30.07,10.0,SSW,16.1,-,N/A,,Clear,200,2013-04-16 08:56:00
4:56 AM,64.9,57.9,78,30.09,10.0,South,11.5,-,N/A,,Clear,190,2013-04-16 09:56:00
5:56 AM,65.8,57.9,76,30.12,10.0,South,11.5,-,N/A,,Clear,180,2013-04-16 10:56:00
6:56 AM,65.8,59.0,79,30.16,10.0,South,6.9,-,N/A,,Partly Cloudy,180,2013-04-16 11:56:00
7:56 AM,68.0,59.0,73,30.19,10.0,South,11.5,-,N/A,,Mostly Cloudy,180,2013-04-16 12:56:00
8:56 AM,70.0,61.0,73,30.21,10.0,South,9.2,-,N/A,,Mostly Cloudy,180,2013-04-16 13:56:00
9:56 AM,72.9,61.9,68,30.20,10.0,South,10.4,-,N/A,,Mostly Cloudy,180,2013-04-16 14:56:00
10:56 AM,75.9,63.9,66,30.19,10.0,South,11.5,-,N/A,,Scattered Clouds,180,2013-04-16 15:56:00
11:56 AM,75.9,63.9,66,30.18,10.0,South,9.2,-,N/A,,Overcast,180,2013-04-16 16:56:00
12:56 PM,77.9,63.9,62,30.16,10.0,SW,6.9,-,N/A,,Mostly Cloudy,230,2013-04-16 17:56:00
1:56 PM,81.0,64.9,58,30.14,10.0,SW,10.4,16.1,N/A,,Mostly Cloudy,230,2013-04-16 18:56:00
2:56 PM,82.9,64.9,54,30.12,10.0,SW,13.8,-,N/A,,Scattered Clouds,220,2013-04-16 19:56:00
3:56 PM,82.9,64.9,54,30.10,10.0,SW,12.7,-,N/A,,Clear,230,2013-04-16 20:56:00
4:56 PM,81.9,63.9,54,30.11,10.0,SW,12.7,-,N/A,,Clear,230,2013-04-16 21:56:00
5:56 PM,79.9,63.9,58,30.12,10.0,SW,12.7,-,N/A,,Clear,230,2013-04-16 22:56:00
6:56 PM,75.9,64.9,69,30.14,10.0,SW,8.1,-,N/A,,Clear,230,2013-04-16 23:56:00
7:56 PM,70.9,63.9,78,30.15,10.0,Calm,Calm,-,N/A,,Clear,0,2013-04-17 00:56:00
8:56 PM,68.9,63.9,84,30.15,10.0,Calm,Calm,-,N/A,,Clear,0,2013-04-17 01:56:00
9:56 PM,64.9,63.0,93,30.15,10.0,Calm,Calm,-,N/A,,Clear,0,2013-04-17 02:56:00
10:56 PM,63.9,63.0,97,30.17,10.0,Calm,Calm,-,N/A,,Scattered Clouds,0,2013-04-17 03:56:00
11:56 PM,64.9,63.9,96,30.16,10.0,Calm,Calm,-,N/A,,Partly Cloudy,0,2013-04-17 04:56:00